Weather History for Sisseton, SD

Change the Weather History Date:

Sunday, August 11, 2013

  Actual Average Record
Temperature  
Mean Temperature 66 °F 70 °F  
Max Temperature 79 °F 82 °F 102 °F (1936)
Min Temperature 53 °F 59 °F 40 °F (1902)
Degree Days  
Heating Degree Days 0 1  
Month to date heating degree days 14 2  
Since 1 June heating degree days 109 77  
Since 1 July heating degree days 40 15  
Cooling Degree Days 1 6  
Month to date cooling degree days 12 68  
Year to date cooling degree days 360 390  
Since 1 June cooling degree days 335 367  
Growing Degree Days 16 (Base 50)    
Moisture  
Dew Point 58 °F    
Average Humidity 76    
Maximum Humidity 100    
Minimum Humidity 52    
Precipitation  
Precipitation 0.00 in 0.07 in 1.21 in (2008)
Month to date precipitation 0.64 1.02  
Year to date precipitation 18.36 15.32  
Sea Level Pressure  
Sea Level Pressure 30.03 in    
Wind  
Wind Speed 4 mph (NNE)    
Max Wind Speed 10 mph    
Max Gust Speed 13 mph    
T = Trace of Precipitation, MM = Missing Value Source: NWS Daily Summary

Daily Weather History Graph

Daily Weather History Graph

Search for Another Location

Airport:

Trip Planner

Search our weather history database for the weather conditions in past years. The results will help you decide how hot, cold, wet, or windy it might be!

Date:

Astronomy

Aug. 11, 2013 Rise Set
Actual Time 6:23 AM CDT 8:41 PM CDT
Civil Twilight 5:50 AM CDT 9:14 PM CDT
Nautical Twilight 5:09 AM CDT 9:55 PM CDT
Astronomical Twilight 4:23 AM CDT 10:40 PM CDT
Moon 11:31 AM CDT (8/11) 10:38 PM CDT (8/11)
Length of Visible Light 15h 23m
Length of Day
14h 18m
Waxing Crescent, 22% of the Moon is Illuminated
Aug 11
Waxing Crescent
Aug 14
First Quarter
Aug 20
Full
Aug 28
Last Quarter
Sep 5
New

Hourly Weather History & Observations

Time (CDT) Temp. Dew Point Humidity Pressure Visibility Wind Dir Wind Speed Gust Speed Precip Events Conditions
12:56 AM 54.0 °F 53.1 °F 97% 30.05 in - Calm Calm - N/A   Unknown
1:56 AM 53.1 °F 52.0 °F 96% 30.04 in - Calm Calm - N/A   Unknown
2:56 AM 54.0 °F 53.1 °F 97% 30.01 in - Calm Calm - N/A   Unknown
3:56 AM 55.9 °F 55.0 °F 97% 30.04 in - South 4.6 mph - N/A   Unknown
4:56 AM 59.0 °F 59.0 °F 100% 30.03 in - WSW 3.5 mph - N/A   Unknown
5:56 AM 57.9 °F 57.0 °F 97% 30.03 in - North 3.5 mph - N/A   Unknown
6:56 AM 57.9 °F 57.0 °F 97% 30.03 in - NNW 3.5 mph - N/A   Unknown
7:56 AM 61.0 °F 59.0 °F 93% 30.04 in - North 8.1 mph - N/A   Unknown
8:56 AM 66.9 °F 62.1 °F 84% 30.04 in - North 4.6 mph - N/A   Unknown
9:56 AM 70.0 °F 63.0 °F 78% 30.04 in - NE 6.9 mph - N/A   Unknown
10:56 AM 73.0 °F 60.1 °F 64% 30.05 in - Variable 4.6 mph - N/A   Unknown
11:56 AM 75.0 °F 59.0 °F 57% 30.05 in - NNE 4.6 mph - N/A   Unknown
12:56 PM 75.9 °F 60.1 °F 58% 30.05 in - East 5.8 mph - N/A   Unknown
1:56 PM 77.0 °F 60.1 °F 56% 30.04 in - Variable 5.8 mph - N/A   Unknown
2:56 PM 77.0 °F 60.1 °F 56% 30.04 in - NE 8.1 mph - N/A   Unknown
3:56 PM 78.1 °F 59.0 °F 52% 30.03 in - Variable 5.8 mph - N/A   Unknown
4:56 PM 77.0 °F 59.0 °F 54% 30.02 in - Variable 5.8 mph - N/A   Unknown
5:56 PM 78.1 °F 59.0 °F 52% 30.01 in - NE 3.5 mph - N/A   Unknown
6:56 PM 75.9 °F 61.0 °F 60% 30.01 in - NE 4.6 mph - N/A   Unknown
7:56 PM 71.1 °F 61.0 °F 70% 30.01 in - NE 4.6 mph - N/A   Unknown
8:56 PM 66.0 °F 60.1 °F 81% 30.01 in - NE 5.8 mph - N/A   Unknown
9:56 PM 63.0 °F 59.0 °F 87% 30.03 in - NNW 3.5 mph - N/A   Unknown
10:56 PM 59.0 °F 57.0 °F 93% 30.04 in - Calm Calm - N/A   Unknown
11:56 PM 57.0 °F 55.0 °F 93% 30.05 in - North 3.5 mph - N/A   Unknown